Vancouver Sea Island Ccg, British Columbia

7:00 AM PDT on September 28, 2016 (GMT -0700)
Vancouver International

Weather History for CYVR - October, 2012

Change the Weather History Date:

Saturday, October 20, 2012

  Actual Average Record
Temperature  
Mean Temperature 46 °F -  
Max Temperature 50 °F 52 °F 66 °F (2003)
Min Temperature 41 °F 42 °F 35 °F (1996)
Degree Days  
Heating Degree Days 20    
Moisture  
Dew Point 38 °F    
Average Humidity 74    
Maximum Humidity 93    
Minimum Humidity 54    
Precipitation  
Precipitation 0.04 in - - ()
Sea Level Pressure  
Sea Level Pressure 29.81 in    
Wind  
Wind Speed 10 mph ()    
Max Wind Speed 17 mph    
Max Gust Speed 21 mph    
Visibility 16.7 miles    
Events Rain    
Averages and records for this station are not official NWS values.
T = Trace of Precipitation, MM = Missing Value Source: Averaged Metar Reports

Daily Weather History Graph

Daily Weather History Graph

Search for Another Location

Airport or City:

Trip Planner

Search our weather history database for the weather conditions in past years. The results will help you decide how hot, cold, wet, or windy it might be!

Date:

Astronomy

Oct. 20, 2012 Rise Set
Actual Time 7:42 AM PDT 6:11 PM PDT
Civil Twilight 7:09 AM PDT 6:44 PM PDT
Nautical Twilight 6:32 AM PDT 7:20 PM PDT
Astronomical Twilight 5:56 AM PDT 7:57 PM PDT
Moon 1:37 PM PDT (10/20) 10:50 PM PDT (10/20)
Length of Visible Light 11h 34m
Length of Day
10h 29m
Waxing Crescent, 35% of the Moon is Illuminated
Oct 20
Waxing Crescent
Oct 21
First Quarter
Oct 29
Full
Nov 6
Last Quarter
Nov 13
New

Hourly Weather History & Observations

Time (PDT) Temp. Windchill Dew Point Humidity Pressure Visibility Wind Dir Wind Speed Gust Speed Precip Events Conditions
12:00 AM 48.2 °F - 39.2 °F 71% 29.73 in 15.0 mi SW 10.4 mph - N/A   Mostly Cloudy
1:00 AM 50.0 °F - 41.0 °F 71% 29.74 in 15.0 mi WSW 16.1 mph - N/A   Mostly Cloudy
2:00 AM 48.2 °F - 37.4 °F 66% 29.75 in 15.0 mi West 11.5 mph - N/A   Scattered Clouds
3:00 AM 44.6 °F 38.4 °F 41.0 °F 87% 29.77 in 15.0 mi WNW 12.7 mph - N/A   Mostly Cloudy
4:00 AM 44.6 °F 38.8 °F 37.4 °F 76% 29.77 in 15.0 mi WNW 11.5 mph - N/A   Scattered Clouds
5:00 AM 44.6 °F 40.2 °F 37.4 °F 76% 29.78 in 15.0 mi West 8.1 mph - N/A   Mostly Cloudy
6:00 AM 46.4 °F 41.9 °F 37.4 °F 71% 29.79 in 15.0 mi West 9.2 mph - N/A   Mostly Cloudy
7:00 AM 46.4 °F 43.5 °F 39.2 °F 76% 29.80 in 15.0 mi West 5.8 mph - N/A   Mostly Cloudy
7:26 AM 46.4 °F 42.9 °F - N/A% - 15.0 mi South 6.9 mph 19.6 mph N/A Rain Light Rain
7:31 AM 46.4 °F 42.9 °F - N/A% - 15.0 mi South 6.9 mph 19.6 mph N/A   Light Small Hail Showers
7:51 AM 44.6 °F 37.4 °F - N/A% - 20.0 mi SSW 16.1 mph - N/A   Mostly Cloudy
8:00 AM 44.6 °F 37.8 °F 37.4 °F 76% 29.79 in 20.0 mi SW 15.0 mph 20.7 mph N/A   Scattered Clouds
9:00 AM 42.8 °F 39.3 °F 35.6 °F 76% 29.81 in 20.0 mi NNE 5.8 mph - N/A   Mostly Cloudy
10:00 AM 46.4 °F 40.4 °F 39.2 °F 76% 29.83 in 20.0 mi SW 13.8 mph - N/A   Scattered Clouds
11:00 AM 48 °F - 38 °F 60% 29.83 in 19 mi SW 12.7 mph - -   Partly Cloudy
11:00 AM 48.2 °F - 39.2 °F 71% 29.83 in 20.0 mi SW 13.8 mph - N/A   Partly Cloudy
12:00 PM 50.0 °F - 37.4 °F 62% 29.84 in 20.0 mi SSW 10.4 mph - N/A   Mostly Cloudy
1:00 PM 50.0 °F - 35.6 °F 58% 29.84 in 20.0 mi SW 8.1 mph 19.6 mph N/A   Mostly Cloudy
2:00 PM 50.0 °F - 33.8 °F 54% 29.84 in 20.0 mi SSW 8.1 mph - N/A   Mostly Cloudy
3:00 PM 50.0 °F - 35.6 °F 58% 29.83 in 20.0 mi South 8.1 mph - N/A   Overcast
4:00 PM 48.2 °F - 37.4 °F 66% 29.84 in 20.0 mi South 17.3 mph - N/A Rain Light Rain Showers
5:00 PM 45 °F - 37 °F 66% 29.84 in 15 mi SSE 15.0 mph - - Rain Light Rain Showers
5:00 PM 44.6 °F 37.2 °F 37.4 °F 76% 29.84 in 15.0 mi SSE 17.3 mph - N/A Rain Light Rain Showers
5:13 PM 44.6 °F 38.4 °F - N/A% - 20.0 mi SSE 12.7 mph - N/A   Overcast
5:42 PM 44.6 °F 39.2 °F - N/A% - 15.0 mi South 10.4 mph - N/A Rain Light Rain Showers
6:00 PM 44.6 °F 42.2 °F 37.4 °F 76% 29.83 in 15.0 mi SSE 4.6 mph - N/A Rain Light Rain Showers
6:28 PM 44.6 °F 42.2 °F - N/A% - 15.0 mi ESE 4.6 mph - N/A   Overcast
7:00 PM 42.8 °F 37.5 °F 37.4 °F 81% 29.83 in 15.0 mi East 9.2 mph - N/A   Mostly Cloudy
7:32 PM 42.8 °F 38.0 °F - N/A% - 15.0 mi East 8.1 mph - N/A Rain Light Rain
8:00 PM 42.8 °F 37.5 °F 39.2 °F 87% 29.83 in 15.0 mi ESE 9.2 mph - N/A Rain Light Rain
9:00 PM 42.8 °F 35.8 °F 39.2 °F 87% 29.83 in 15.0 mi ESE 13.8 mph - N/A   Mostly Cloudy
10:00 PM 42.8 °F 35.4 °F 39.2 °F 87% 29.83 in 15.0 mi East 15.0 mph - N/A Rain Light Rain
10:24 PM 41.0 °F 33.5 °F - N/A% - 15.0 mi East 13.8 mph - N/A   Overcast
11:00 PM 41 °F - 38 °F 87% 29.84 in 15 mi ESE 12.7 mph - - Rain Light Rain
11:00 PM 41.0 °F 33.9 °F 39.2 °F 93% 29.84 in 15.0 mi ESE 12.7 mph - N/A   Mostly Cloudy